Regional Weather Roundup
Issued by NWS Cleveland, OH

Home | Current Version | Previous Version | Graphics & Text | Print | Product List | Glossary On
Versions: 1 2 3 4 5 6 7 8 9 10 11 12 13 14 15 16 17 18 19 20 21 22 23 24 25 26 27 28 29 30 31 32 33 34 35 36 37 38 39 40 41 42 43 44 45 46 47 48 49 50
307
ASUS41 KCLE 220210
RWRCLE
OHIO REGIONAL WEATHER ROUNDUP
NATIONAL WEATHER SERVICE WILMINGTON, OH
1000 PM EDT THU MAY 21 2015

NOTE: "FAIR" INDICATES FEW OR NO CLOUDS BELOW 12,000 FEET WITH NO
SIGNIFICANT WEATHER AND/OR OBSTRUCTIONS TO VISIBILITY.

OHZ001>008-015>018-024>027-034-035-043-044-220300-
   NORTHWEST OHIO

CITY           SKY/WX    TMP DP  RH WIND       PRES   REMARKS
DEFIANCE       CLEAR     53  33  46 W3        30.03R
FINDLAY        CLEAR     52  38  58 SW6       30.03R
TOLEDO EXPRESS CLEAR     54  35  48 W8        30.01R
TOLEDO EXEC    CLEAR     56  36  47 SW8       30.01R
LIMA           CLEAR     52  38  58 SW8       30.05R
$$

OHZ009>014-019>023-028>033-038-089-220300-
   NORTHEAST OHIO

CITY           SKY/WX    TMP DP  RH WIND       PRES   REMARKS
CLE-HOPKINS    PTCLDY    52  32  46 S8        30.02R
CLE-LAKEFRONT  CLEAR     56  33  42 SW13      29.99R
CUY CO. ARPT   CLEAR     54  37  54 SW9       30.00R
LORAIN-ELYRIA  CLEAR     50  36  58 SW8       30.02R
ASHTABULA      CLEAR     48  37  65 SW7       29.99R
AKRON-CANTON   CLEAR     50  37  61 W5        30.02R
WOOSTER        CLEAR     47  34  60 W7        30.03R
MANSFIELD      CLEAR     48  37  65 SW6       30.04R
YOUNGSTOWN     PTCLDY    47  36  65 SW3       30.00R
$$

OHZ042-051>053-060>062-070>072-077>081-220300-
  SOUTHWEST OHIO

CITY           SKY/WX    TMP DP  RH WIND       PRES   REMARKS
CINC-COVINGTON CLEAR     51  41  68 W5        30.11R
CINC-LUNKEN    CLEAR     46  42  86 CALM      30.12R
HAMILTON       CLEAR     46  42  86 CALM      30.11R
DAYTON         CLEAR     51  39  63 SW7       30.09R
WRIGHT-PAT AFB CLEAR     48  40  72 S6        30.08R
DAYTON GENERAL CLEAR     50  40  68 CALM      30.09R
WILMINGTON     CLEAR     51  39  63 W5        30.09R
$$

OHZ036-037-039>041-045>050-054>059-063>069-073>076-082>088-220300-
  CENTRAL AND SOUTHEAST OHIO

CITY           SKY/WX    TMP DP  RH WIND       PRES   REMARKS
COLUMBUS       CLEAR     50  39  66 W3        30.07R
OSU AIRPORT    CLEAR     52  37  56 W3        30.07R
BOLTON FIELD   NOT AVBL
RICKENBACK AFB CLEAR     49  40  68 W6        30.07R
NEWARK         CLEAR     47  41  80 CALM      30.06R
MARION         CLEAR     50  36  58 SW6       30.05R
LANCASTER      CLEAR     49  41  74 W3        30.08R
ZANESVILLE     CLEAR     49  41  74 SW5       30.06R
NEW PHILLY     CLEAR     51  42  71 CALM      30.05R
$$



USA.gov is the U.S. government's official web portal to all federal, state and local government web resources and services.